This is the latest recevied weather packets stored in our database for station/object KBTL-WX. If no packets are shown the sender has not sent any weather packets the latest 1 day(s).
| Time | Temp. | Humidity | Pressure | Rain* | Wind** | Luminosity | Snow |
|---|---|---|---|---|---|---|---|
| 1777976115 | 10° C | 72% | 969.1 hPa | 0 mm | 3.58 m/s, 248° | - | - |
| 1777975242 | 9.44° C | 72% | 969.1 hPa | 0 mm | 2.68 m/s, 214° | - | - |
| 1777974315 | 10° C | 69% | 969 hPa | 0 mm | 2.68 m/s, 240° | - | - |
| 1777973436 | 10° C | 70% | 969 hPa | 0 mm | 2.24 m/s, 238° | - | - |
| 1777972515 | 10.56° C | 70% | 969.1 hPa | 0 mm | 4.02 m/s, 260° | - | - |
| 1777971643 | 11.11° C | 70% | 969.1 hPa | 0 mm | 3.58 m/s, 262° | - | - |
| 1777970713 | 11.11° C | 83% | 969 hPa | 0 mm | 4.92 m/s, 273° | - | - |
| 1777969833 | 12.22° C | 83% | 968 hPa | 0 mm | 4.92 m/s, 268° | - | - |
| 1777968915 | 12.78° C | 83% | 968 hPa | 0 mm | 5.36 m/s, 269° | - | - |
| 1777968039 | 12.78° C | 85% | 968.9 hPa | 0 mm | 4.92 m/s, 253° | - | - |
| 1777967115 | 12.78° C | 81% | 968.3 hPa | 0 mm | 4.92 m/s, 243° | - | - |
| 1777966235 | 12.78° C | 81% | 968.3 hPa | 0 mm | 5.36 m/s, 244° | - | - |
| 1777965316 | 13.33° C | 81% | 968.3 hPa | 0 mm | 4.92 m/s, 232° | - | - |
| 1777964440 | 13.33° C | 81% | 968.3 hPa | 0 mm | 5.36 m/s, 227° | - | - |
| 1777963515 | 13.33° C | 76% | 969 hPa | 0 mm | 4.02 m/s, 232° | - | - |
| 1777962630 | 13.89° C | 79% | 968.3 hPa | 0 mm | 3.58 m/s, 230° | - | - |
| 1777961716 | 13.89° C | 79% | 968.3 hPa | 0 mm | 3.58 m/s, 230° | - | - |
| 1777960843 | 13.89° C | 79% | 968.3 hPa | 0 mm | 4.02 m/s, 232° | - | - |
| 1777959916 | 14.44° C | 75% | 968.8 hPa | 0 mm | 4.92 m/s, 237° | - | - |
| 1777959037 | 14.44° C | 76% | 968.6 hPa | 0 mm | 5.81 m/s, 201° | - | - |
* Rain latest hour (hover to see other rain measurements)
** Current wind speed in m/s (hover to see current wind gust speed)